Vancouver, WA
on Thursday, January 17, 2013

Thursday
Previous Day Next Day
Daily Summary
 ActualAverageRecord
Temperature
Mean Temperature °F 42°F  
Max Temperature 44°F 48°F 61°F (1900)
Min Temperature 26°F 36°F 7°F (1907)
Degree Days
Heating Degree Days 30    
Month to date heating degree days 495  
Since 1 July heating degree days 2043  
Cooling Degree Days 0    
Month to date cooling degree days 0  
Year to date cooling degree days 0  
Moisture
Dew Point 29°F   
Average Humidity 79    
Maximum Humidity 96    
Minimum Humidity 62    
Precipitation
Precipitation 0.00 in 0.17 in 1.51 in (1999)
Month to date precipitation 1.00 3.23  
Year to date precipitation 1.00 3.23  
Snow
Snow 0.00 in in in ()
Month to date snowfall 0.0  
Snow Depth 0.00 in   
Wind
Wind Speed 1 mph   
Max Wind Speed 8 mph   
Max Gust Speed 9 mph   
Visibility 10 miles   
Events     

Key: T is trace of precipitation, MM is missing value
Source: NWS Daily Summary
Time(PST)TemperatureDew PointHumidity Pressure Visibility Wind DirectionWind SpeedGust SpeedPrecipitationEvents Conditions
12:45 AM 33.8°F 32.0°F 93% 30.51 in 9.0 miles Calm Calm - N/A   Overcast
12:53 AM 34.0°F 30.9°F 89% 30.51 in 8.0 miles Calm Calm - N/A   Overcast
1:53 AM 34.0°F 30.9°F 89% 30.50 in 9.0 miles Calm Calm - N/A   Overcast
2:53 AM 34.0°F 30.9°F 89% 30.51 in 9.0 miles Calm Calm - N/A   Overcast
4:53 AM 33.1°F 30.9°F 92% 30.48 in 9.0 miles Calm Calm - N/A   Overcast
5:53 AM 33.1°F 30.0°F 89% 30.47 in 9.0 miles Calm Calm - N/A   Overcast
6:53 AM 33.1°F 28.9°F 85% 30.46 in 10.0 miles Calm Calm - N/A   Overcast
7:53 AM 32.0°F 28.9°F 88% 30.47 in 10.0 miles ENE 3.5 mph - N/A   Overcast
8:53 AM 33.1°F 28.9°F 85% 30.47 in 10.0 miles Calm Calm - N/A   Scattered Clouds
9:26 AM 33.8°F 28.4°F 81% 30.47 in 10.0 miles Calm Calm - N/A   Mostly Cloudy
9:53 AM 35.1°F 30.0°F 82% 30.47 in 10.0 miles Calm Calm - N/A   Scattered Clouds
10:30 AM 37.4°F 30.2°F 75% 30.46 in 10.0 miles Calm Calm - N/A   Mostly Cloudy
10:51 AM 35.6°F 30.2°F 81% 30.45 in 10.0 miles Calm Calm - N/A   Scattered Clouds
10:53 AM 36.0°F 30.0°F 79% 30.46 in 10.0 miles SW 3.5 mph - N/A   Scattered Clouds
11:53 AM 37.0°F 30.0°F 76% 30.43 in 10.0 miles SW 3.5 mph - N/A   Clear
12:53 PM 39.0°F 30.9°F 73% 30.40 in 10.0 miles Variable 3.5 mph - N/A   Clear
1:53 PM 42.1°F 30.0°F 62% 30.38 in 10.0 miles Calm Calm - N/A   Clear
2:53 PM 42.1°F 30.9°F 65% 30.35 in 10.0 miles Calm Calm - N/A   Clear
3:53 PM 42.1°F 30.0°F 62% 30.35 in 10.0 miles East 5.8 mph - N/A   Clear
4:53 PM 39.0°F 28.9°F 67% 30.35 in 10.0 miles ESE 4.6 mph - N/A   Clear
5:53 PM 36.0°F 28.0°F 73% 30.35 in 10.0 miles SE 3.5 mph - N/A   Clear
6:53 PM 36.0°F 28.0°F 73% 30.35 in 10.0 miles Calm Calm - N/A   Clear
7:53 PM 34.0°F 27.0°F 75% 30.35 in 10.0 miles Calm Calm - N/A   Clear
8:53 PM 32.0°F 26.1°F 79% 30.35 in 10.0 miles Calm Calm - N/A   Clear
9:53 PM 28.9°F 25.0°F 85% 30.35 in 10.0 miles Calm Calm - N/A   Clear
10:53 PM 27.0°F 24.1°F 89% 30.34 in 9.0 miles Calm Calm - N/A   Clear
11:53 PM 27.0°F 24.1°F 89% 30.34 in 7.0 miles Calm Calm - N/A   Clear
Moon Phase
Jan. 17 Jan. 18 Jan. 26 Feb. 03 Feb. 10
Sunrise:07:45 AM (PST) Moon Rise:10:33 AM (PST)1/17
Sunset:04:56 PM (PST) Moon Set:No Moon Set/

Copyright © 2014 The Weather Underground, Inc.